Total_Precipitation_Accumulation
2.04 2.02 2.01 2.05 1.96 2.04 2.05 1.94 1.68 1.49 1.35 1.17 1.02 1.07 1.18 1.17 1.29 1.42 1.68 1.73 1.59 1.76 2.14 2.43 2.45 2.46 2.40 2.31 2.20 2.13 2.04 1.98 1.83 1.62 1.37 1.22 1.16 1.06 1.03 1.03 1.04 1.01 0.95
2.42 2.40 2.48 2.46 2.21 2.20 2.28 2.30 2.13 1.90 1.62 1.41 1.24 1.20 1.20 1.21 1.34 1.52 1.73 1.87 1.80 1.72 2.06 2.49 2.68 2.78 2.75 2.74 2.61 2.35 2.17 2.06 2.00 1.84 1.67 1.46 1.33 1.22 1.16 1.11 1.08 1.03 0.99
2.70 2.67 2.82 2.80 2.47 2.36 2.48 2.58 2.52 2.34 1.94 1.65 1.54 1.50 1.44 1.48 1.49 1.59 1.78 1.92 1.93 1.88 1.99 2.13 2.32 2.49 2.63 2.77 2.80 2.63 2.41 2.18 2.05 1.94 1.90 1.81 1.63 1.45 1.32 1.25 1.21 1.14 1.06
2.73 2.82 2.75 2.59 2.51 2.57 2.80 2.99 2.90 2.78 2.49 2.22 2.04 1.79 1.63 1.64 1.61 1.77 1.83 1.90 2.18 2.12 2.04 1.85 1.92 2.11 2.35 2.67 2.90 2.93 2.82 2.58 2.30 2.10 2.02 1.92 1.78 1.57 1.40 1.33 1.32 1.26 1.17
2.87 3.01 3.02 2.97 2.90 2.92 2.99 2.91 3.05 2.88 2.90 2.70 2.26 2.02 1.82 1.77 1.84 1.89 1.95 1.97 2.09 2.21 2.17 1.95 1.86 1.94 2.06 2.36 2.61 2.90 3.00 2.91 2.64 2.38 2.22 2.10 1.94 1.76 1.60 1.50 1.41 1.33 1.25
3.20 3.28 3.25 3.31 3.35 3.39 3.22 3.14 3.13 2.94 2.81 2.70 2.34 2.17 2.03 1.90 1.86 1.84 1.78 1.82 1.91 1.88 1.96 1.96 1.99 1.87 1.92 2.04 2.23 2.61 3.00 3.11 3.04 2.81 2.60 2.44 2.20 1.94 1.73 1.63 1.54 1.47 1.40
3.76 3.76 3.77 3.76 3.63 3.55 3.39 3.20 3.06 2.96 2.75 2.54 2.47 2.18 1.87 1.64 1.58 1.54 1.58 1.66 1.65 1.63 1.72 1.89 1.99 1.95 1.83 1.79 1.91 2.32 2.87 3.15 3.16 3.02 2.85 2.71 2.44 2.12 1.89 1.74 1.65 1.55 1.48
4.44 4.21 4.14 3.95 3.66 3.48 3.35 3.14 2.99 2.85 2.60 2.45 2.41 2.38 2.00 1.71 1.44 1.28 1.36 1.38 1.45 1.57 1.65 1.62 1.66 1.67 1.64 1.65 1.60 1.83 2.07 2.33 2.60 2.80 2.87 2.74 2.54 2.33 2.11 1.99 1.93 1.85 1.75
4.50 4.18 3.89 3.73 3.55 3.36 3.19 3.09 2.97 2.85 2.63 2.46 2.37 2.50 2.36 2.07 1.70 1.51 1.38 1.40 1.47 1.52 1.52 1.47 1.43 1.42 1.46 1.54 1.57 1.63 1.77 1.90 2.13 2.37 2.56 2.56 2.45 2.31 2.22 2.17 2.15 2.18 2.17
4.15 3.71 3.48 3.46 3.30 3.09 2.92 2.70 2.56 2.51 2.45 2.36 2.32 2.21 2.19 2.13 1.98 1.80 1.61 1.61 1.63 1.60 1.54 1.49 1.53 1.58 1.58 1.64 1.63 1.51 1.47 1.51 1.71 1.89 2.13 2.25 2.19 2.13 2.14 2.24 2.37 2.51 2.54
3.57 3.30 3.11 3.11 3.01 2.76 2.53 2.29 2.09 2.01 2.02 2.10 2.12 2.09 2.02 1.97 1.83 1.75 1.68 1.61 1.58 1.57 1.50 1.47 1.51 1.58 1.57 1.51 1.48 1.46 1.46 1.41 1.52 1.65 1.78 1.98 2.09 2.13 2.15 2.26 2.36 2.47 2.57
3.03 2.74 2.47 2.35 2.23 2.07 1.96 1.86 1.73 1.67 1.66 1.78 1.86 1.83 1.82 1.82 1.79 1.79 1.75 1.62 1.60 1.67 1.56 1.43 1.36 1.33 1.34 1.39 1.42 1.54 1.46 1.44 1.49 1.53 1.49 1.51 1.63 1.83 2.00 2.10 2.14 2.25 2.42
2.41 2.13 1.93 1.82 1.76 1.70 1.64 1.61 1.56 1.51 1.43 1.45 1.48 1.52 1.55 1.52 1.56 1.69 1.82 1.83 1.75 1.63 1.55 1.47 1.32 1.27 1.26 1.28 1.43 1.55 1.41 1.36 1.42 1.43 1.33 1.26 1.27 1.38 1.49 1.62 1.77 1.90 2.05
1.87 1.74 1.59 1.49 1.46 1.46 1.41 1.40 1.36 1.29 1.21 1.16 1.12 1.18 1.24 1.24 1.38 1.58 1.70 1.86 1.91 1.71 1.47 1.39 1.32 1.23 1.22 1.25 1.44 1.48 1.29 1.23 1.21 1.26 1.25 1.18 1.12 1.11 1.15 1.22 1.30 1.37 1.49
1.43 1.41 1.35 1.27 1.17 1.10 1.05 1.04 1.03 1.04 1.07 1.08 1.03 1.01 1.04 1.07 1.19 1.32 1.44 1.64 1.83 1.78 1.53 1.31 1.28 1.27 1.21 1.29 1.51 1.30 1.19 1.20 1.09 1.01 1.02 1.02 1.00 0.98 0.98 0.97 0.98 1.03 1.08
1.09 1.11 1.06 0.99 0.96 0.97 0.91 0.85 0.84 0.88 0.91 0.96 0.98 0.92 0.92 0.94 0.99 1.05 1.13 1.28 1.47 1.62 1.55 1.28 1.16 1.11 1.09 1.09 1.34 1.18 1.18 1.20 1.00 0.88 0.82 0.82 0.83 0.83 0.82 0.82 0.84 0.87 0.92
0.93 0.89 0.86 0.83 0.81 0.81 0.80 0.82 0.80 0.81 0.87 0.88 0.88 0.87 0.86 0.87 0.92 0.92 0.96 1.06 1.20 1.35 1.50 1.40 1.18 1.07 1.05 1.10 1.15 1.07 1.04 0.98 0.91 0.88 0.76 0.71 0.72 0.74 0.71 0.71 0.76 0.79 0.81
0.81 0.79 0.80 0.76 0.68 0.65 0.68 0.72 0.74 0.74 0.82 0.83 0.83 0.85 0.83 0.84 0.88 0.88 0.90 0.95 1.07 1.23 1.38 1.45 1.29 1.16 1.07 1.03 1.04 1.01 0.86 0.81 0.83 0.93 0.79 0.70 0.66 0.64 0.68 0.64 0.63 0.69 0.76
0.75 0.73 0.68 0.66 0.64 0.60 0.61 0.61 0.62 0.64 0.71 0.77 0.79 0.85 0.88 0.87 0.86 0.84 0.88 0.94 1.05 1.18 1.33 1.38 1.31 1.22 1.17 1.09 1.12 1.05 0.94 1.00 0.85 0.85 0.78 0.72 0.67 0.64 0.83 0.87 0.63 0.60 0.65
0.65 0.61 0.55 0.54 0.60 0.58 0.51 0.49 0.51 0.54 0.60 0.63 0.66 0.79 0.86 0.86 0.85 0.90 0.93 0.98 1.05 1.20 1.30 1.34 1.27 1.19 1.16 1.16 1.20 1.22 1.16 1.11 0.97 0.76 0.77 0.74 0.71 0.71 1.04 1.56 1.01 0.71 0.68
0.64 0.62 0.56 0.51 0.54 0.52 0.46 0.46 0.46 0.46 0.52 0.55 0.57 0.65 0.71 0.74 0.75 0.81 0.84 0.92 1.05 1.19 1.27 1.32 1.28 1.21 1.14 1.23 1.26 1.21 1.17 1.17 1.04 0.88 0.85 0.78 0.92 1.22 1.76 2.39 1.89 1.23 0.99
0.70 0.65 0.59 0.55 0.54 0.47 0.44 0.41 0.42 0.45 0.51 0.58 0.65 0.66 0.61 0.62 0.60 0.59 0.66 0.76 0.91 1.10 1.26 1.32 1.30 1.26 1.19 1.22 1.29 1.27 1.27 1.29 1.27 0.99 0.91 0.91 1.13 1.87 2.56 2.89 2.43 1.59 1.25
0.78 0.67 0.58 0.56 0.55 0.45 0.38 0.33 0.34 0.43 0.54 0.63 0.69 0.67 0.55 0.53 0.63 0.64 0.65 0.69 0.80 0.92 1.13 1.33 1.39 1.29 1.25 1.26 1.37 1.42 1.37 1.35 1.33 1.12 1.09 1.15 1.36 2.13 2.43 2.60 2.39 1.65 1.34
0.75 0.67 0.58 0.55 0.53 0.39 0.33 0.31 0.33 0.39 0.46 0.49 0.51 0.58 0.66 0.67 0.60 0.62 0.63 0.75 0.83 0.94 1.02 1.14 1.31 1.24 1.18 1.24 1.34 1.37 1.31 1.26 1.18 1.09 1.10 1.26 1.48 2.00 2.02 2.13 2.17 1.68 1.38
0.70 0.62 0.56 0.53 0.51 0.40 0.33 0.30 0.32 0.39 0.43 0.40 0.37 0.41 0.48 0.52 0.50 0.58 0.69 0.86 0.91 1.02 1.05 1.22 1.24 1.18 1.16 1.17 1.12 1.15 1.33 1.42 1.33 1.08 1.00 1.17 1.38 1.66 1.71 1.80 1.76 1.62 1.47
0.65 0.53 0.48 0.47 0.44 0.41 0.32 0.27 0.29 0.34 0.41 0.39 0.41 0.47 0.46 0.40 0.42 0.53 0.72 0.92 1.06 1.11 1.19 1.39 1.37 1.33 1.23 1.17 1.07 1.10 1.37 1.54 1.49 1.24 0.99 1.05 1.21 1.35 1.56 1.54 1.45 1.38 1.45